Skip Page Navigation
NASA JPL Caltech
NASA Logo - Jet Propulsion Laboratory + View the NASA Portal
+ Near-Earth Object (NEO) Program
Search JPL
JPL Home Earth Solar System Stars & Galaxies Technology
JPL Solar System Dynamics
BODIES ORBITS EPHEMERIDES TOOLS PHYSICAL DATA DISCOVERY FAQ SITE MAP
JPL Small-Body Database Browser
Search: [ help ]  
(2009 KC3)
Classification: Apollo [NEO, PHA]          SPK-ID: 3461187
Ephemeris | Orbit Diagram | Orbital Elements | Physical Parameters | Close-Approach Data ]

[ hide orbit diagram ]
Orbit Diagram
Note: Make sure you have Java enabled on your browser to see the applet. This applet is provided as a 3D orbit visualization tool. The applet was implemented using 2-body methods, and hence should not be used for determining accurate long-term trajectories (over several years or decades) or planetary encounter circumstances. For accurate long-term ephemerides, please instead use our Horizons system.
Orbit Viewer

Additional Notes: the orbits shown in the applet are color coded. The planets are white lines, and the asteroid/comet is a blue line. The bright white line indicates the portion of the orbit that is above the ecliptic plane, and the darker portion is below the ecliptic plane. Likewise for the asteroid/comet orbit, the light blue indicates the portion above the ecliptic plane, and the dark blue the portion below the ecliptic plane.

Orbit Viewer applet originally written and kindly provided by Osamu Ajiki (AstroArts), and further modified by Ron Baalke (JPL).


Orbital Elements at Epoch 2456400.5 (2013-Apr-18.0) TDB
Reference: JPL 85 (heliocentric ecliptic J2000)
 Element Value Uncertainty (1-sigma)   Units 
e .6983764378573201 7.4369e-07  
a 3.207625427389523 7.8906e-06 AU
q .9674954074286639 3.3622e-08 AU
i 10.00673090920057 5.5358e-06 deg
node 340.101716484759 9.7765e-06 deg
peri 337.2867987441925 1.2401e-05 deg
M 230.8219124657884 0.00085274 deg
tp 2457153.439789028846
(2015-May-10.93978903)
0.0077486 JED
period 2098.330523577362
5.74
0.0077427
2.12e-05
d
yr
n .171564963648458 6.3306e-07 deg/d
Q 5.447755447350382 1.3401e-05 AU
  Orbit Determination Parameters
   # obs. used (total)      428  
   # delay obs. used      4  
   # Doppler obs. used      1  
   data-arc span      273 days  
   first obs. used      2009-05-04  
   last obs. used      2010-02-01  
   planetary ephem.      DE405  
   SB-pert. ephem.      SB405-CPV-2  
   condition code      2  
   fit RMS      .46295  
   data source      ORB  
   producer      Otto Matic  
   solution date      2011-Sep-14 20:42:27  

Additional Information
 Earth MOID = .00638053 AU 
 T_jup = 2.729 
[ show covariance matrix ]

Ephemeris | Orbit Diagram | Orbital Elements | Physical Parameters | Close-Approach Data ]

Physical Parameter Table
Parameter Symbol Value Units Sigma Reference Notes
absolute magnitude H 17.956 mag .42537 85 autocmod 2.5a

[ show close-approach data ]
Ephemeris | Orbit Diagram | Orbital Elements | Physical Parameters | Close-Approach Data ]
ABOUT SSD CREDITS/AWARDS PRIVACY/COPYRIGHT GLOSSARY LINKS
FirstGov 2013-May-23 00:34 UT
(server date/time)  
NASA Home Page
Site Manager:   Donald K. Yeomans
Webmaster  Alan B. Chamberlin